الصفحة الرئيسية
METAR-TAF:

METAR-TAF

مطار :

Lamar Municipal Airport

Lamar, كولورادو, الولايات المتحدة

دائرة عرض: 38-04-21N, خط طول: 102-41-12W, ارتفاع: 1128 متر

مراقبة الطقس الحالي

تاريخ ووقت الإصدار 31 دقيقة قبل الساعة 07:53UTC
ريح 6 عقدة من الشمال/الشمال الشرقي
درجة الحرارة -8°درجة مئوية
الرطوبة 79%
ضغط 1008 hPa
الرؤية: 16.1 كم
سماء صافية

METAR: KLAA 210753Z AUTO 03006KT 10SM CLR M08/M11 A2977 RMK AO2 SLP103 T10781111

زمن: 01:24 (08:24 UTC)


TAF: مفقودة

أرصاد الطقس والتوقعات من أكثر من 4000 مطار (تقارير الطقس للمطار METAR والتنبؤ بالطقس بالمطارTAF).

المحطات المتاحة هي النقط الصفراء والحمراء على الخريطة.

حرك المؤشر فوق النقطة لمعرفة اسم المحطة.

ثم انقر لمعرفة أرصاد وتوقعات الطقس.

لتغيير الخارطة: اضغط على الأزرار الخضراء مع رمز الصليب الأسود للتكبير. على الزر الأخضر مع شرطة للتصغير، أو على الأسهم الخضراء للخرائط المجاورة.


METAR-TAF: